Normandy Park, Washington, United States
Lat: 47.44N, Lon: 122.34W
Wx Zone: WAZ508
Local Info
Past Weather Observations for Today

NOTE: This archive is for the closest National Weather Service station to Normandy Park. Information may differ from the station used for current weather conditions.

Click here for Long-term Archive

Time Weather Temperature Dewpoint Humidity Pressure Winds Precip Visibility
22:35
Overcast
54°F / 12°C 52°F / 11°C 94% 29.5 in
(999 mb)
SW 20.7 mph
(SW 33 kph)
0.01 in
(0.25 mm)
10SM
22:11
Overcast
54°F / 12°C 52°F / 11°C 94% 29.5 in
(999 mb)
SW 25.3 mph
(SW 41 kph)
0.01 in
(0.25 mm)
10SM
22:07
Overcast
54°F / 12°C 52°F / 11°C 94% 29.5 in
(999 mb)
SW 21.9 mph
(SW 35 kph)
0.01 in
(0.25 mm)
10SM
21:53
Overcast
Light Rain
54°F / 12°C 52°F / 11°C 94% 29.5 in
(999 mb)
SW 16.1 mph
(SW 26 kph)
0.00 in
(0.00 mm)
10SM
20:53
Overcast
54°F / 12°C 52°F / 11°C 94% 29.5 in
(999 mb)
SSE 19.6 mph
(SSE 32 kph)
0.00 in
(0.00 mm)
10SM
19:53
Overcast
54°F / 12°C 52°F / 11°C 94% 29.47 in
(998 mb)
SSE 19.6 mph
(SSE 32 kph)
0.01 in
(0.25 mm)
10SM
18:53
Overcast
Light Rain
54°F / 12°C 52°F / 11°C 94% 29.47 in
(998 mb)
S 18.4 mph
(S 30 kph)
0.01 in
(0.25 mm)
10SM
17:53
Overcast
Light Rain
54°F / 12°C 50°F / 10°C 88% 29.47 in
(998 mb)
S 16.1 mph
(S 26 kph)
0.05 in
(1.27 mm)
4SM
16:53
Overcast
Fog And Mist
50°F / 10°C 48°F / 9°C 94% 29.47 in
(998 mb)
SSE 13.8 mph
(SSE 22 kph)
0.03 in
(0.76 mm)
5SM
15:53
Overcast
Light Rain
48°F / 9°C 46°F / 8°C 94% 29.47 in
(998 mb)
SSE 9.2 mph
(SSE 15 kph)
0.04 in
(1.02 mm)
5SM
15:37
Overcast
Light Rain
48°F / 9°C 46°F / 8°C 94% 29.47 in
(998 mb)
SSE 6.9 mph
(SSE 11 kph)
0.03 in
(0.76 mm)
3SM
15:14
Overcast
Light Rain
48°F / 9°C 46°F / 8°C 94% 29.5 in
(999 mb)
SSE 5.8 mph
(SSE 9 kph)
0.01 in
(0.25 mm)
2 1/2SM
14:53
Overcast
Light Rain
48°F / 9°C 46°F / 8°C 94% 29.5 in
(999 mb)
SE 10.4 mph
(SE 17 kph)
0.05 in
(1.27 mm)
8SM
13:53
Overcast
Light Rain
48°F / 9°C 45°F / 7°C 87% 29.53 in
(1000 mb)
SSE 8.1 mph
(SSE 13 kph)
0.04 in
(1.02 mm)
8SM
12:53
Overcast
Light Rain
46°F / 8°C 45°F / 7°C 93% 29.56 in
(1001 mb)
SE 10.4 mph
(SE 17 kph)
0.07 in
(1.78 mm)
5SM
11:53
Overcast
Light Rain
46°F / 8°C 43°F / 6°C 87% 29.59 in
(1002 mb)
SE 11.5 mph
(SE 19 kph)
0.08 in
(2.03 mm)
4SM
11:16
Overcast
Light Rain
46°F / 8°C 43°F / 6°C 87% 29.62 in
(1003 mb)
ESE 9.2 mph
(ESE 15 kph)
0.03 in
(0.76 mm)
4SM
10:53
Overcast
Light Rain
46°F / 8°C 43°F / 6°C 87% 29.62 in
(1003 mb)
E 10.4 mph
(E 17 kph)
0.02 in
(0.51 mm)
2 1/2SM
09:53
Overcast
Light Rain
45°F / 7°C 43°F / 6°C 93% 29.62 in
(1003 mb)
E 9.2 mph
(E 15 kph)
0.01 in
(0.25 mm)
3SM
08:53
Overcast
Drizzle
45°F / 7°C 43°F / 6°C 93% 29.62 in
(1003 mb)
ENE 10.4 mph
(ENE 17 kph)
0.00 in
(0.00 mm)
4SM
07:53
Overcast
Light Rain
45°F / 7°C 41°F / 5°C 87% 29.65 in
(1004 mb)
E 6.9 mph
(E 11 kph)
0.06 in
(1.52 mm)
7SM
06:53
Overcast
Light Rain
45°F / 7°C 41°F / 5°C 87% 29.65 in
(1004 mb)
ENE 4.6 mph
(ENE 7 kph)
0.11 in
(2.79 mm)
9SM
05:53
Overcast
Light Rain
45°F / 7°C 39°F / 4°C 81% 29.68 in
(1005 mb)
ESE 9.2 mph
(ESE 15 kph)
0.02 in
(0.51 mm)
10SM
04:53
Overcast
45°F / 7°C 39°F / 4°C 81% 29.71 in
(1006 mb)
ESE 6.9 mph
(ESE 11 kph)
0.02 in
(0.51 mm)
10SM
03:53
Overcast
Light Rain
45°F / 7°C 39°F / 4°C 81% 29.74 in
(1007 mb)
SE 10.4 mph
(SE 17 kph)
0.02 in
(0.51 mm)
10SM
02:53
Overcast
Light Rain
45°F / 7°C 39°F / 4°C 81% 29.77 in
(1008 mb)
SE 11.5 mph
(SE 19 kph)
0.03 in
(0.76 mm)
10SM
01:53
Overcast
Light Rain
45°F / 7°C 39°F / 4°C 81% 29.8 in
(1009 mb)
SE 10.4 mph
(SE 17 kph)
0.05 in
(1.27 mm)
8SM
00:53
Overcast
Light Rain
45°F / 7°C 39°F / 4°C 81% 29.83 in
(1010 mb)
ESE 8.1 mph
(ESE 13 kph)
0.04 in
(1.02 mm)
8SM
Time Weather Temperature Dewpoint Humidity Pressure Winds Precip Visibility


Weather for websites

WeatherForYou.com, LLC is not responsible for any damages or problems caused by this service. Current weather conditions are obtained from the closest station including government and personal stations which may have varying degrees of accuracy. Weather forecasts are derived from the NOAA NDFD. Like all things, this site belongs to Jesus Christ... He just trusts me to maintain it. If you have any questions or comments email webmaster@weatherforyou.com

Copyright © 2014, WeatherForYou.com LLC. All rights reserved.